Pipestone, MN

7:05 AM CDT on August 25, 2019 (GMT -0500)
Pipestone Municipal

Weather History for KPQN - July, 2019

Change the Weather History Date:

Tuesday, July 23, 2019

  Actual Average Record
Temperature  
Mean Temperature 66 °F -  
Max Temperature 78 °F 80 °F 95 °F (2006)
Min Temperature 55 °F 60 °F 50 °F (1996)
Cooling Degree Days 2    
Growing Degree Days 16 (Base 50)    
Moisture  
Dew Point 55 °F    
Average Humidity 68    
Maximum Humidity 94    
Minimum Humidity 42    
Precipitation  
Precipitation 0.00 in - - ()
Sea Level Pressure  
Sea Level Pressure 30.28 in    
Wind  
Wind Speed 0 mph (West)    
Max Wind Speed 6 mph    
Max Gust Speed -    
Visibility 10 miles    
Events      
Averages and records for this station are not official NWS values.
T = Trace of Precipitation, MM = Missing Value Source: NWS Daily Summary

Daily Weather History Graph

Daily Weather History Graph

Search for Another Location

Airport or City:

Astronomy

Jul. 23, 2019 Rise Set
Actual Time 6:03 AM CDT 8:59 PM CDT
Civil Twilight 5:29 AM CDT 9:32 PM CDT
Nautical Twilight 4:46 AM CDT 10:16 PM CDT
Astronomical Twilight 3:55 AM CDT 11:06 PM CDT
Moon 12:10 AM CDT (7/23) 12:30 PM CDT (7/23)
Length of Visible Light 16h 03m
Length of Day
14h 55m
Waning Gibbous, 63% of the Moon is Illuminated
Jul 23
Waning Gibbous
Jul 24
Last Quarter
Jul 31
New
Aug 7
First Quarter
Aug 15
Full

Hourly Weather History & Observations

Time (CDT) Temp. Dew Point Humidity Pressure Visibility Wind Dir Wind Speed Gust Speed Precip Events Conditions
12:16 AM 62.6 °F 53.6 °F 72% 30.30 in 10.0 mi Calm Calm - N/A   Clear
12:35 AM 62.6 °F 55.4 °F 77% 30.30 in 10.0 mi Calm Calm - N/A   Clear
12:36 AM 62.6 °F 55.4 °F 77% 30.30 in 10.0 mi Calm Calm - N/A   Clear
12:55 AM 57.2 °F 55.4 °F 94% 30.30 in 10.0 mi Calm Calm - N/A   Clear
12:56 AM 57.2 °F 55.4 °F 94% 30.30 in 10.0 mi Calm Calm - N/A   Clear
1:20 AM 59.0 °F 53.6 °F 82% 30.30 in 10.0 mi Calm Calm - N/A   Clear
1:37 AM 57.2 °F 55.4 °F 94% 30.30 in 10.0 mi Calm Calm - N/A   Clear
1:55 AM 59.0 °F 53.6 °F 82% 30.31 in 10.0 mi Calm Calm - N/A   Clear
2:15 AM 59.0 °F 53.6 °F 82% 30.30 in 10.0 mi Calm Calm - N/A   Clear
2:16 AM 59.0 °F 53.6 °F 82% 30.30 in 10.0 mi Calm Calm - N/A   Clear
2:35 AM 60.8 °F 53.6 °F 77% 30.31 in 10.0 mi Calm Calm - N/A   Clear
2:36 AM 60.8 °F 53.6 °F 77% 30.31 in 10.0 mi Calm Calm - N/A   Clear
2:59 AM 57.2 °F 53.6 °F 88% 30.30 in 10.0 mi Calm Calm - N/A   Clear
3:16 AM 57.2 °F 53.6 °F 88% 30.30 in 10.0 mi Calm Calm - N/A   Clear
3:36 AM 55.4 °F 53.6 °F 94% 30.30 in 10.0 mi Calm Calm - N/A   Clear
3:55 AM 57.2 °F 53.6 °F 88% 30.30 in 10.0 mi Calm Calm - N/A   Clear
3:56 AM 57.2 °F 53.6 °F 88% 30.30 in 10.0 mi Calm Calm - N/A   Clear
4:15 AM 55.4 °F 53.6 °F 94% 30.30 in 10.0 mi Calm Calm - N/A   Clear
4:19 AM 55.4 °F 53.6 °F 94% 30.30 in 10.0 mi Calm Calm - N/A   Clear
4:38 AM 55.4 °F 53.6 °F 94% 30.30 in 10.0 mi Calm Calm - N/A   Clear
4:55 AM 57.2 °F 53.6 °F 88% 30.30 in 10.0 mi Calm Calm - N/A   Clear
5:15 AM 55.4 °F 53.6 °F 94% 30.30 in 10.0 mi Calm Calm - N/A   Clear
5:35 AM 55.4 °F 53.6 °F 94% 30.30 in 10.0 mi Calm Calm - N/A   Clear
5:58 AM 55.4 °F 51.8 °F 88% 30.30 in 10.0 mi Calm Calm - N/A   Clear
6:17 AM 55.4 °F 53.6 °F 94% 30.30 in 10.0 mi Calm Calm - N/A   Clear
6:36 AM 55.4 °F 51.8 °F 88% 30.30 in 10.0 mi Calm Calm - N/A   Clear
6:55 AM 57.2 °F 53.6 °F 88% 30.30 in 10.0 mi Calm Calm - N/A   Clear
6:56 AM 57.2 °F 53.6 °F 88% 30.30 in 10.0 mi Calm Calm - N/A   Clear
7:15 AM 57.2 °F 53.6 °F 88% 30.30 in 10.0 mi Calm Calm - N/A   Clear
7:37 AM 60.8 °F 55.4 °F 82% 30.31 in 10.0 mi Calm Calm - N/A   Clear
7:56 AM 62.6 °F 57.2 °F 82% 30.31 in 7.0 mi Calm Calm - N/A   Clear
8:15 AM 64.4 °F 55.4 °F 73% 30.31 in 10.0 mi Calm Calm - N/A   Clear
8:16 AM 64.4 °F 55.4 °F 73% 30.31 in 10.0 mi Calm Calm - N/A   Clear
8:35 AM 64.4 °F 55.4 °F 73% 30.31 in 10.0 mi Calm Calm - N/A   Clear
8:36 AM 64.4 °F 55.4 °F 73% 30.31 in 10.0 mi Calm Calm - N/A   Clear
8:58 AM 66.2 °F 57.2 °F 73% 30.32 in 10.0 mi Calm Calm - N/A   Clear
9:16 AM 66.2 °F 57.2 °F 73% 30.32 in 10.0 mi Calm Calm - N/A   Clear
9:35 AM 68.0 °F 55.4 °F 64% 30.32 in 10.0 mi Calm Calm - N/A   Clear
9:36 AM 68.0 °F 55.4 °F 64% 30.32 in 10.0 mi Calm Calm - N/A   Clear
9:55 AM 69.8 °F 57.2 °F 64% 30.32 in 10.0 mi Calm Calm - N/A   Clear
9:56 AM 69.8 °F 57.2 °F 64% 30.32 in 10.0 mi Calm Calm - N/A   Clear
10:15 AM 71.6 °F 57.2 °F 60% 30.31 in 10.0 mi WNW 3.5 mph - N/A   Clear
10:20 AM 71.6 °F 55.4 °F 57% 30.32 in 10.0 mi Calm Calm - N/A   Clear
10:37 AM 71.6 °F 55.4 °F 57% 30.32 in 10.0 mi Calm Calm - N/A   Clear
10:55 AM 71.6 °F 53.6 °F 53% 30.31 in 10.0 mi Calm Calm - N/A   Clear
11:15 AM 71.6 °F 55.4 °F 57% 30.31 in 10.0 mi NNW 4.6 mph - N/A   Clear
11:16 AM 71.6 °F 55.4 °F 57% 30.31 in 10.0 mi NNW 4.6 mph - N/A   Clear
11:35 AM 71.6 °F 55.4 °F 57% 30.31 in 10.0 mi Calm Calm - N/A   Scattered Clouds
11:36 AM 71.6 °F 55.4 °F 57% 30.31 in 10.0 mi Calm Calm - N/A   Scattered Clouds
11:59 AM 73.4 °F 53.6 °F 50% 30.30 in 10.0 mi Calm Calm - N/A   Scattered Clouds
12:16 PM 73.4 °F 55.4 °F 53% 30.30 in 10.0 mi East 5.8 mph - N/A   Scattered Clouds
12:36 PM 73.4 °F 53.6 °F 50% 30.29 in 10.0 mi Calm Calm - N/A   Scattered Clouds
12:55 PM 73.4 °F 55.4 °F 53% 30.29 in 10.0 mi ESE 4.6 mph - N/A   Scattered Clouds
12:56 PM 73.4 °F 55.4 °F 53% 30.29 in 10.0 mi East 4.6 mph - N/A   Scattered Clouds
1:15 PM 73.4 °F 53.6 °F 50% 30.29 in 10.0 mi Calm Calm - N/A   Scattered Clouds
1:19 PM 73.4 °F 55.4 °F 53% 30.29 in 10.0 mi NW 3.5 mph - N/A   Scattered Clouds
1:37 PM 75.2 °F 55.4 °F 50% 30.28 in 10.0 mi Calm Calm - N/A   Scattered Clouds
1:56 PM 73.4 °F 55.4 °F 53% 30.28 in 10.0 mi Calm Calm - N/A   Scattered Clouds
2:15 PM 73.4 °F 55.4 °F 53% 30.28 in 10.0 mi Calm Calm - N/A   Scattered Clouds
2:16 PM 75.2 °F 55.4 °F 50% 30.28 in 10.0 mi WNW 3.5 mph - N/A   Scattered Clouds
2:35 PM 75.2 °F 55.4 °F 50% 30.28 in 10.0 mi Calm Calm - N/A   Scattered Clouds
2:57 PM 75.2 °F 53.6 °F 47% 30.27 in 10.0 mi Calm Calm - N/A   Scattered Clouds
3:15 PM 77.0 °F 57.2 °F 50% 30.26 in 10.0 mi Calm Calm - N/A   Scattered Clouds
3:35 PM 75.2 °F 55.4 °F 50% 30.26 in 10.0 mi Calm Calm - N/A   Scattered Clouds
3:36 PM 75.2 °F 55.4 °F 50% 30.26 in 10.0 mi Calm Calm - N/A   Scattered Clouds
3:55 PM 75.2 °F 53.6 °F 47% 30.26 in 10.0 mi Calm Calm - N/A   Scattered Clouds
3:56 PM 75.2 °F 53.6 °F 47% 30.26 in 10.0 mi Calm Calm - N/A   Scattered Clouds
4:19 PM 75.2 °F 53.6 °F 47% 30.25 in 10.0 mi Calm Calm - N/A   Clear
4:36 PM 77.0 °F 53.6 °F 44% 30.24 in 10.0 mi Calm Calm - N/A   Scattered Clouds
4:56 PM 78.8 °F 55.4 °F 44% 30.24 in 10.0 mi SW 3.5 mph - N/A   Clear
5:15 PM 77.0 °F 53.6 °F 44% 30.24 in 10.0 mi Calm Calm - N/A   Clear
5:35 PM 77.0 °F 55.4 °F 47% 30.24 in 10.0 mi Calm Calm - N/A   Scattered Clouds
5:39 PM 75.2 °F 53.6 °F 47% 30.24 in 10.0 mi Calm Calm - N/A   Scattered Clouds
5:58 PM 77.0 °F 53.6 °F 44% 30.23 in 10.0 mi Calm Calm - N/A   Mostly Cloudy
6:15 PM 78.8 °F 53.6 °F 42% 30.23 in 10.0 mi South 4.6 mph - N/A   Scattered Clouds
6:35 PM 75.2 °F 55.4 °F 50% 30.22 in 10.0 mi Calm Calm - N/A   Clear
6:36 PM 75.2 °F 55.4 °F 50% 30.22 in 10.0 mi Calm Calm - N/A   Clear
6:55 PM 75.2 °F 53.6 °F 47% 30.22 in 10.0 mi SW 3.5 mph - N/A   Clear
7:16 PM 75.2 °F 53.6 °F 47% 30.21 in 10.0 mi Calm Calm - N/A   Clear
7:36 PM 75.2 °F 55.4 °F 50% 30.21 in 10.0 mi Calm Calm - N/A   Clear
7:55 PM 73.4 °F 59.0 °F 61% 30.21 in 10.0 mi SW 3.5 mph - N/A   Clear
7:56 PM 73.4 °F 59.0 °F 61% 30.21 in 10.0 mi WSW 3.5 mph - N/A   Clear
8:15 PM 73.4 °F 59.0 °F 61% 30.21 in 10.0 mi Calm Calm - N/A   Clear
8:37 PM 71.6 °F 57.2 °F 60% 30.21 in 10.0 mi Calm Calm - N/A   Clear
8:55 PM 71.6 °F 57.2 °F 60% 30.21 in 10.0 mi Calm Calm - N/A   Clear
9:15 PM 69.8 °F 59.0 °F 68% 30.21 in 10.0 mi Calm Calm - N/A   Clear
9:16 PM 69.8 °F 59.0 °F 68% 30.21 in 10.0 mi Calm Calm - N/A   Clear
9:35 PM 66.2 °F 60.8 °F 83% 30.21 in 10.0 mi Calm Calm - N/A   Clear
9:36 PM 66.2 °F 60.8 °F 83% 30.21 in 10.0 mi Calm Calm - N/A   Clear
9:59 PM 66.2 °F 60.8 °F 83% 30.22 in 10.0 mi Calm Calm - N/A   Clear
10:16 PM 66.2 °F 60.8 °F 83% 30.22 in 10.0 mi Calm Calm - N/A   Clear
10:36 PM 66.2 °F 59.0 °F 78% 30.23 in 10.0 mi Calm Calm - N/A   Clear
10:55 PM 66.2 °F 59.0 °F 78% 30.23 in 10.0 mi Calm Calm - N/A   Clear
10:56 PM 66.2 °F 59.0 °F 78% 30.23 in 10.0 mi Calm Calm - N/A   Clear
11:15 PM 66.2 °F 59.0 °F 78% 30.23 in 10.0 mi Calm Calm - N/A   Clear
11:19 PM 66.2 °F 59.0 °F 78% 30.23 in 10.0 mi Calm Calm - N/A   Clear
11:37 PM 66.2 °F 59.0 °F 78% 30.23 in 10.0 mi Calm Calm - N/A   Clear
11:55 PM 66.2 °F 59.0 °F 78% 30.22 in 10.0 mi Calm Calm - N/A   Clear